This demonstration page uses our WeatherBlox Daily Observations layout. Learn more.

53.6, 11.35

Hourly Observations for February 24, 2021

Temp ( °F °C ) Dew Point ( °F °C ) Humidity (%) Winds ( mph kmh ) Pressure ( in mb ) Visibility ( mi km ) Precip ( " mm )
7:50 am 07:50 Mostly Sunny 50 10 45 7 82 82 SSW 5 7 30.39 1029 7 11.26538 N/A
8:20 am 08:20 Mostly Sunny 50 10 45 7 82 82 SSW 5 7 30.39 1029 7 11.26538 N/A
8:50 am 08:50 Mostly Sunny 50 10 45 7 82 82 S 7 11 30.39 1029 7 11.26538 N/A
9:20 am 09:20 Mostly Sunny 52 11 45 7 77 77 S 12 19 30.39 1029 7 11.26538 N/A
9:50 am 09:50 Mostly Sunny 54 12 46 8 77 77 S 12 19 30.39 1029 7 11.26538 N/A
10:20 am 10:20 Mostly Sunny 55 13 46 8 72 72 S 9 15 30.39 1029 7 11.26538 N/A
10:50 am 10:50 Mostly Sunny 59 15 46 8 63 63 S 9 15 30.36 1028 7 11.26538 N/A
11:20 am 11:20 Mostly Sunny 59 15 48 9 68 68 S 10 17 30.36 1028 7 11.26538 N/A
11:50 am 11:50 Mostly Sunny 61 16 46 8 59 59 S 13 20 30.36 1028 7 11.26538 N/A
12:20 pm 12:20 Mostly Sunny 63 17 46 8 56 56 S 15 24 30.36 1028 7 11.26538 N/A
12:50 pm 12:50 Mostly Sunny 63 17 45 7 52 52 SSW 16 26 30.36 1028 7 11.26538 N/A
1:20 pm 13:20 Mostly Sunny 64 18 45 7 49 49 SSW 17 28 30.36 1028 7 11.26538 N/A
1:50 pm 13:50 Mostly Sunny 64 18 45 7 49 49 SSW 16 26 30.33 1027 7 11.26538 N/A
2:20 pm 14:20 Mostly Sunny 66 19 45 7 46 46 SSW 17 28 30.33 1027 7 11.26538 N/A
2:50 pm 14:50 Mostly Sunny 64 18 45 7 49 49 SSW 14 22 30.33 1027 7 11.26538 N/A
3:20 pm 15:20 Mostly Sunny 64 18 45 7 49 49 SSW 15 24 30.33 1027 7 11.26538 N/A
3:50 pm 15:50 Mostly Sunny 64 18 46 8 52 52 SSW 15 24 30.33 1027 7 11.26538 N/A
4:20 pm 16:20 Mostly Sunny 64 18 46 8 52 52 SSW 13 20 30.33 1027 7 11.26538 N/A
4:50 pm 16:50 Mostly Sunny 64 18 46 8 52 52 SSW 10 17 30.33 1027 7 11.26538 N/A
5:20 pm 17:20 Mostly Sunny 63 17 46 8 56 56 SSW 9 15 30.33 1027 7 11.26538 N/A
5:50 pm 17:50 Mostly Clear 61 16 45 7 55 55 S 7 11 30.33 1027 7 11.26538 N/A
6:20 pm 18:20 Mostly Clear 59 15 45 7 59 59 S 7 11 30.33 1027 7 11.26538 N/A
6:50 pm 18:50 Mostly Clear 59 15 45 7 59 59 S 6 9 30.33 1027 7 11.26538 N/A
7:20 pm 19:20 Mostly Clear 59 15 45 7 59 59 S 6 9 30.33 1027 7 11.26538 N/A
7:50 pm 19:50 Mostly Clear 57 14 43 6 59 59 S 7 11 30.33 1027 7 11.26538 N/A

Powered by AerisWeather